Location: Harwich
(41.6860°N, 70.0760°W)
Time: 07:50:10
(UTC-04:00)

Cosmos 2228 - Visible Passes

Search period start: 21 August 2017 00:00
Search period end: 31 August 2017 00:00
Orbit: 592 x 618 km, 82.5° (Epoch: 21 August)

Date Brightness Start Highest point End Pass type
(mag) Time Alt. Az. Time Alt. Az. Time Alt. Az.
22 Aug 5.7 00:12:57 18° N 00:12:57 18° N 00:14:06 10° N visible
23 Aug 5.8 00:25:48 16° NNW 00:25:48 16° NNW 00:26:49 10° N visible
23 Aug 5.8 23:01:48 12° NNE 23:01:48 12° NNE 23:02:14 10° NNE visible
24 Aug 6.0 00:38:39 13° NNW 00:38:39 13° NNW 00:39:17 10° NNW visible
24 Aug 5.7 23:14:38 15° NNE 23:14:38 15° NNE 23:15:27 10° NNE visible
25 Aug 5.7 23:27:27 17° N 23:27:27 17° N 23:28:29 10° N visible
26 Aug 5.8 23:40:16 17° N 23:40:16 17° N 23:41:21 10° N visible
27 Aug 5.9 23:53:04 15° NNW 23:53:04 15° NNW 23:54:00 10° NNW visible
28 Aug 5.6 22:29:01 13° NNE 22:29:01 13° NNE 22:29:36 10° NNE visible
29 Aug 6.1 00:05:51 12° NNW 00:05:51 12° NNW 00:06:21 10° NNW visible
29 Aug 5.5 22:41:47 16° NNE 22:41:47 16° NNE 22:42:46 10° NNE visible
30 Aug 5.5 22:54:33 18° N 22:54:33 18° N 22:55:44 10° N visible
